DateTimeUTC,F1_A11,F1_S11,BsB_S11,BsG_S11,BsR_S11,BbsB_S11,BbsG_S11,BbsR_S11,BaB_A11,BaG_A11,BaR_A11,Tu_S11,T_S11,Uu_S11,U_S11,P_S11,T1_A11
2021-02-08T21:00:00Z,00000200,21000000,,,,,,,-000.02,-000.46,-000.09,16.1,23.5,,00.0,0655.8,31.0
2021-02-08T21:01:00Z,00000200,21000000,,,,,,,0000.18,0000.46,-000.03,16.1,23.5,,00.0,0655.8,31.0
2021-02-08T21:02:00Z,00000200,21000000,,,,,,,-000.01,-000.37,-000.11,16.0,23.5,,00.0,0655.8,31.0
2021-02-08T21:03:00Z,00000200,61000000,,,,,,,0000.69,0000.86,0000.33,16.0,23.5,,00.0,0655.8,31.0
2021-02-08T21:04:00Z,00000200,41000000,0001.65,0000.79,0000.27,0000.41,0000.28,0000.08,0000.59,0000.19,0000.38,16.1,23.3,,00.0,0656.7,30.9
2021-02-08T21:05:00Z,00000200,01000000,0001.44,0001.02,0000.50,0000.27,0000.44,0000.04,0000.73,0000.55,0000.33,16.1,23.2,,00.0,0656.8,30.9
2021-02-08T21:06:00Z,00000200,01000000,0002.02,0000.88,0000.31,0000.44,0000.11,-000.11,0000.38,0000.48,0000.49,16.1,23.1,,00.0,0656.7,30.9
2021-02-08T21:07:00Z,00000200,01000000,0001.48,0000.85,0000.43,0000.68,-000.04,0000.04,0000.73,0000.91,0000.53,16.2,23.2,,00.0,0656.7,30.9
2021-02-08T21:08:00Z,00000200,01000000,0000.96,0000.71,0000.43,-000.04,0000.13,-000.26,0000.48,0000.33,0000.37,16.3,23.2,,00.0,0656.7,31.0
2021-02-08T21:09:00Z,00000200,01000000,0001.75,0000.82,0000.12,0000.29,0000.14,0000.33,0000.41,0000.48,0000.37,16.4,23.2,,00.0,0656.7,31.0
2021-02-08T21:10:00Z,00000200,01000000,0001.21,0000.79,0000.64,-000.21,-000.01,0000.03,0000.87,0000.38,0000.39,16.5,23.3,,00.0,0656.7,31.0
2021-02-08T21:11:00Z,00000200,01000000,0001.36,0000.69,0000.57,0000.32,0000.25,0000.07,0000.02,0000.51,0000.39,16.5,23.3,,00.0,0656.7,31.0
2021-02-08T21:12:00Z,00000200,01000000,0001.64,0000.95,0000.68,0000.30,0000.22,0000.25,0000.62,0000.50,0000.27,16.6,23.3,,00.0,0656.7,31.0
2021-02-08T21:13:00Z,00000200,01000000,0001.92,0000.52,0000.45,0000.33,0000.06,0000.17,0000.64,0000.43,0000.01,16.6,23.3,,00.0,0656.7,31.0
2021-02-08T21:14:00Z,00000200,01000000,0001.59,0000.79,0000.55,0000.05,0000.22,0000.26,0000.45,0000.37,0000.72,16.6,23.4,,00.0,0656.7,31.0
2021-02-08T21:15:00Z,00000200,01000000,0001.83,0000.67,0000.77,-000.02,0000.01,0000.34,0000.10,0000.04,-000.05,16.6,23.3,,00.0,0656.7,31.0
2021-02-08T21:16:00Z,00000200,01000000,0001.26,0000.47,0000.48,0000.47,0000.49,0000.01,0000.68,0000.72,0000.33,16.5,23.3,,00.0,0656.7,31.0
2021-02-08T21:17:00Z,00000200,01000000,0001.61,0000.57,0000.55,0000.68,0000.17,0000.40,0000.51,0000.59,0000.18,16.5,23.3,,00.0,0656.7,31.0
2021-02-08T21:18:00Z,00000200,01000000,0001.15,0000.63,0000.45,-000.30,0000.08,0000.16,0000.38,0000.31,0000.45,16.4,23.3,,00.0,0656.7,31.0
2021-02-08T21:19:00Z,00000200,01000000,0001.08,0000.14,0000.18,0000.40,-000.05,-000.23,0000.49,0000.18,0000.31,16.4,23.2,,00.0,0656.7,31.0
2021-02-08T21:20:00Z,00000200,01000000,0000.58,0000.39,0000.12,0000.42,0000.33,-000.01,-000.03,0000.36,0000.10,16.3,23.2,,00.0,0656.6,31.0
2021-02-08T21:21:00Z,00000200,01000000,0000.56,0000.54,0000.31,0000.38,-000.06,0000.15,0000.71,0000.47,-000.07,16.3,23.2,,00.0,0656.5,31.0
2021-02-08T21:22:00Z,00000200,01000000,-000.27,0000.29,0000.12,0000.28,0000.09,-000.21,0000.34,0000.27,0000.90,16.4,23.2,,00.0,0656.5,31.0
2021-02-08T21:23:00Z,00000200,01000000,0000.92,0000.20,0000.14,0000.03,0000.06,0000.04,0000.23,0000.55,0000.05,16.5,23.3,,00.0,0656.5,31.0
2021-02-08T21:24:00Z,00000200,01000000,0000.76,0000.01,-000.08,-000.03,0000.10,0000.36,0000.65,0000.06,0000.16,16.6,23.3,,00.0,0656.4,31.0
2021-02-08T21:25:00Z,00000200,01000000,0000.17,0000.30,0000.25,0000.51,0000.02,0000.20,-000.13,-000.20,0000.07,16.6,23.4,,00.0,0656.4,31.0
2021-02-08T21:26:00Z,00000200,01000000,0000.08,0000.34,0000.25,0000.78,0000.07,-000.02,0000.11,0000.49,0000.24,16.6,23.4,,00.0,0656.4,31.0
2021-02-08T21:27:00Z,00000200,01000000,0000.20,0000.44,0000.15,-000.46,-000.19,0000.23,0000.03,-000.27,-000.19,16.6,23.4,,00.0,0656.4,31.0
2021-02-08T21:28:00Z,00000200,01000000,0000.69,0000.47,0000.18,-000.22,-000.00,-000.06,0000.17,0000.24,0000.06,16.6,23.3,,00.0,0656.4,31.0
2021-02-08T21:29:00Z,00000200,01000000,0000.34,0000.22,0000.02,-000.05,0000.09,-000.16,0000.58,0000.33,0000.43,16.5,23.3,,00.0,0656.3,31.0
2021-02-08T21:30:00Z,00000200,01000000,0000.64,0000.11,-000.01,-000.01,0000.18,-000.19,0000.18,0000.65,-000.02,16.5,23.3,,00.0,0656.3,31.0
2021-02-08T21:31:00Z,00000200,01000000,0000.27,0000.19,0000.09,0000.54,0000.11,-000.07,-000.19,0000.07,0000.24,16.5,23.3,,00.0,0656.2,31.0
2021-02-08T21:32:00Z,00000200,01000000,0001.01,0000.09,-000.15,0000.63,-000.01,-000.15,0000.78,0000.12,0000.24,16.4,23.3,,00.0,0656.2,31.0
2021-02-08T21:33:00Z,00000200,01000000,0000.81,0000.23,0000.13,0000.40,0000.19,0000.03,0000.52,0000.17,0000.30,16.4,23.2,,00.0,0656.1,31.0
2021-02-08T21:34:00Z,00000200,01000000,0000.34,0000.30,0000.23,0000.24,0000.27,0000.16,0000.06,0000.19,-000.01,16.4,23.2,,00.0,0656.1,31.0
2021-02-08T21:35:00Z,00000200,01000000,0000.20,0000.24,0000.39,0000.23,0000.46,0000.12,0000.38,0000.52,0000.51,16.3,23.2,,00.0,0656.0,30.9
2021-02-08T21:36:00Z,00000200,01000000,0000.25,0000.29,0000.16,-000.04,0000.28,0000.11,0000.68,0000.24,0000.16,16.3,23.2,,00.0,0656.0,30.9
2021-02-08T21:37:00Z,00000200,01000000,0000.88,0000.31,0000.13,0000.65,0000.26,0000.16,0000.54,0000.80,0000.43,16.4,23.2,,00.0,0655.9,31.0
2021-02-08T21:38:00Z,00000200,01000000,0000.59,0000.02,0000.15,0000.19,0000.09,-000.13,0000.08,0000.32,0000.59,16.5,23.2,,00.0,0655.9,31.0
2021-02-08T21:39:00Z,00000200,01000000,0000.23,0000.00,0000.08,0000.48,0000.04,-000.07,0000.68,0000.22,0000.17,16.6,23.3,,00.0,0655.9,31.0
2021-02-08T21:40:00Z,00000200,01000000,0000.69,0000.47,0000.11,-000.16,0000.26,0000.06,0001.51,0001.40,0000.95,16.6,23.3,,00.0,0655.8,31.0
2021-02-08T21:41:00Z,00000200,01000000,0000.44,0000.30,-000.13,-000.12,0000.41,-000.14,0002.52,0002.40,0001.89,16.6,23.3,,00.0,0655.8,31.0
2021-02-08T21:42:00Z,00000200,01000000,0000.55,-000.01,0000.22,-000.44,0000.14,0000.27,0000.52,0000.41,0000.32,16.6,23.3,,00.0,0655.8,31.0
2021-02-08T21:43:00Z,00000200,01000000,0000.41,0000.24,0000.36,-000.17,0000.08,-000.20,0000.33,0000.42,-000.09,16.6,23.3,,00.0,0655.8,31.0
2021-02-08T21:44:00Z,00000200,01000000,0000.41,0000.05,-000.15,0000.13,-000.02,-000.19,0000.48,0000.27,0000.32,16.5,23.3,,00.0,0655.8,31.0
2021-02-08T21:45:00Z,00000200,01000000,0000.32,-000.21,0000.28,0000.22,-000.15,-000.07,0000.96,0000.68,0000.25,16.5,23.3,,00.0,0655.8,31.0
2021-02-08T21:46:00Z,00000200,01000000,0000.18,0000.54,0000.24,0000.20,0000.14,-000.21,0001.08,0001.20,0001.14,16.4,23.2,,00.0,0655.8,31.0
2021-02-08T21:47:00Z,00000200,01000000,0001.16,0000.35,0000.43,-000.38,-000.05,0000.15,0001.10,0001.10,0001.03,16.4,23.2,,00.0,0655.8,31.0
2021-02-08T21:48:00Z,00000200,01000000,0000.66,0000.32,0000.09,-000.13,0000.06,0000.02,0001.09,0000.99,0000.59,16.4,23.2,,00.0,0655.9,31.0
2021-02-08T21:49:00Z,00000200,01000000,0000.84,0000.22,0000.26,0000.16,0000.25,0000.14,0000.74,0000.71,0000.62,16.3,23.2,,00.0,0655.8,30.9
2021-02-08T21:50:00Z,00000200,01000000,0000.60,0000.23,0000.28,0000.45,0000.15,-000.20,0000.60,0000.46,0000.34,16.3,23.1,,00.0,0655.8,30.9
2021-02-08T21:51:00Z,00000200,01000000,0000.15,0000.19,0000.28,-000.32,0000.07,0000.07,0001.23,0000.69,0000.64,16.3,23.1,,00.0,0655.8,30.9
2021-02-08T21:52:00Z,00000200,01000000,0001.10,0000.48,0000.09,-000.41,0000.12,0000.30,0004.17,0004.00,0003.12,16.4,23.2,,00.0,0655.7,30.9
2021-02-08T21:53:00Z,00000200,01000000,0000.86,0000.30,0000.15,-000.38,0000.20,-000.09,0009.55,0008.43,0006.23,16.4,23.2,,00.0,0655.7,31.0
2021-02-08T21:54:00Z,00000200,01000000,0000.75,0000.60,0000.30,0000.55,0000.28,0000.04,0017.45,0015.73,0011.94,16.5,23.2,,00.0,0655.7,31.0
2021-02-08T21:55:00Z,00000200,01000000,0001.00,0000.66,0000.41,0000.63,0000.33,0000.03,0017.80,0016.41,0012.62,16.6,23.3,,00.0,0655.7,31.0
2021-02-08T21:56:00Z,00000200,01000000,0000.93,0000.75,0000.01,-000.30,0000.27,0000.13,0012.07,0011.01,0008.76,16.6,23.3,,00.0,0655.7,31.0
2021-02-08T21:57:00Z,00000200,41000000,,,,,,,0002.39,0002.01,0001.21,16.6,23.3,,00.0,0655.7,31.0
2021-02-08T21:58:00Z,00000200,61000000,,,,,,,0000.14,0000.26,0000.07,16.3,23.4,,00.0,0654.8,31.0
2021-02-08T21:59:00Z,00000200,21000000,,,,,,,0000.53,0000.45,0000.10,16.2,23.5,,00.0,0654.7,31.0
